COSMOS 1691 DEB, 18565

Orbit data source: Space-Track

COSMOS 1691 DEB, 18565 is space debris in LEO originally from a launch on Wed, 09 Oct 1985 UTC launched from the Plesetsk Missile And Space Complex (PKMTR). Debris objects in space refer to the collection of defunct objects orbiting the Earth. Examples of debris include non-operational satellites, rocket bodies, and fragments generated from explosions, collisions, or faulty payload assembly.

Loading next visibility...
Identifier
18565, 1985-094U
Orbit
LEO
Country
Flag of CISCIS
Related business
Manufacturer
Unknown
Mission
Spacecraft
Bus & Motor
Unknown
Mass
Unknown
Launch date (UTC)
1985-10-09 (41 years ago)
Launch vehicle
Unknown
Launch site
Plesetsk Missile And Space Complex (PKMTR)
Object type
Payload
Rocket body
Debris
Shape & HBR
Unknown shape, 0.1 m
Radar Cross Section
Small (<0.1 m²)

Expand to show TLE details & history
Last TLE update: 1 day ago

TLE from 1 day ago
0 COSMOS 1691 DEB
1 18565U 85094U   26126.54344872  .00009185  00000-0  10611-1 0  9998
2 18565  82.4898 163.6912 0104786 229.3386 285.8168 13.66723766685489
Epoch: 2026-05-06T13:02Z
TLE epoch observation values (Epoch: 2026-05-06T13:02:33.969Z)
Latitude
25.79631°
Longitude
-79.98716°
Altitude
994.105 km
Speed
7.367 km/s
True Right ascension
22h 40m 13s
True Declination
25° 39' 58"
Sunlit
Object was in daylight at epoch
Visualization orbit readout
Latitude
Unknown
Longitude
Unknown
Altitude
Unknown
Speed
Unknown
Apparent Right ascension
Unknown
Apparent Declination
Unknown
Sunlit
N/A
Visualization observer readout
Local Sidereal Time
04:28:30
Azimuth
Unknown
Elevation
Unknown
Doppler factor
Unknown
Orbital elements
Apogee altitude
1,085.936 km
Perigee altitude
931.132 km
Semi-major axis
7,386.671 km
Eccentricity
0.01048
Inclination
82.4898°
RAAN
163.6912°
Arg. of periapsis
229.3386°
True anomaly
284.65744°
Mean anomaly
285.8168°
Eccentric anomaly
285.23753°
Mean motion
3.41877 °/min
Orbital period
105.3 mins
BSTAR
0.010611
Loading maneuver chart data...
Computing Atmospheric mass density...
Loading historical data...
Loading historical data...
Loading historical data...
Loading historical data...
Loading historical data...
Loading historical data...
Loading historical data...

Documentation

Showing up to 5 results
|